Regional Weather Roundup
Issued by NWS

Home | Current Version | Previous Version | Text Only | Print | Product List | Glossary On
Versions: 1 2 3 4 5 6 7 8 9 10 11 12 13 14 15 16 17 18 19 20 21 22 23 24 25 26 27 28 29 30 31 32 33 34 35 36 37 38 39 40 41 42 43 44 45 46 47 48 49 50
631
ASUS43 KBIS 110202
RWRND

NORTH DAKOTA REGIONAL WEATHER ROUNDUP
NATIONAL WEATHER SERVICE BISMARCK ND
800 PM CST WED FEB 10 2016

NOTE: "FAIR" INDICATES FEW OR NO CLOUDS BELOW 12,000 FEET WITH NO
SIGNIFICANT WEATHER AND/OR OBSTRUCTIONS TO VISIBILITY.


NDZ001>003-009>011-017-110300-
NORTHWEST NORTH DAKOTA

CITY           SKY/WX    TMP DP  RH WIND       PRES   REMARKS
WILLISTON      CLOUDY    28  24  85 E3        30.17R
MINOT          CLOUDY    13   6  74 NE3       30.22R
MINOT AFB      CLOUDY    11   8  88 E3        30.21R
$$

NDZ018>021-031>035-040>046-110300-
SOUTHWEST NORTH DAKOTA

CITY           SKY/WX    TMP DP  RH WIND       PRES   REMARKS
BISMARCK       CLOUDY    19  11  70 E6        30.19R WCI  11
DICKINSON      CLOUDY    28  24  85 N12       30.09F WCI  18
GARRISON         N/A     14   9  80 NE6       30.18R WCI   5
HETTINGER ARPT CLOUDY    30  24  78 NE8       30.13R
$$

NDZ004>008-012>016-024-026-027-054-110300-
NORTHEAST NORTH DAKOTA

CITY           SKY/WX    TMP DP  RH WIND       PRES   REMARKS
GRAND FORKS    CLOUDY     9   0  67 N9        30.30R WCI  -4
GRND FRKS AFB  CLOUDY     7  -1  70 NE6       30.29R WCI  -3
DEVILS LAKE    CLOUDY     6   1  80 S5        30.25R WCI  -3
$$

NDZ022-023-025-028>030-036>039-047>053-110300-
SOUTHEAST NORTH DAKOTA

CITY           SKY/WX    TMP DP  RH WIND       PRES   REMARKS
FARGO          CLOUDY    10   1  67 N8        30.27R WCI  -2
JAMESTOWN      CLOUDY     8   3  80 E7        30.23R WCI  -3
$$





USA.gov is the U.S. government's official web portal to all federal, state and local government web resources and services.